Home   Weather   St. Paul   Past weeks

Flag for USA Past Weather in St. Paul, Minnesota, USA — Yesterday and Last 2 Weeks

Now
19 °F

Passing clouds.


Feels Like: 7 °F
Forecast: 10 / 17 °F
Wind: 10 mph from West

Location: St. Paul Downtown Holman Field

Current Time: Dec 9, 2016 at 1:40:23 pm

Latest Report: Dec 9, 2016 at 12:53 pm


Visibility: 10 mi

Pressure: 30.57 "Hg

Humidity: 68%

Dew Point: 10 °F

Location of St. PaulLocation

Past Weather in St. Paul — Graph

°F

St. Paul Temperature Yesterday

Maximum temperature yesterday: 24 °F (at 11:53 am)
Minimum temperature yesterday: 16 °F (at 12:53 am)
Average temperature yesterday: 20 °F

High & Low Weather Summary for the Past Weeks

 TemperatureHumidityPressure
High54 °F (Nov 28, 9:53 am)100% (Nov 24, 7:53 pm)30.61 "Hg (Nov 24, 7:53 pm)
Low16 °F (Dec 9, 7:53 am)64% (Dec 3, 1:53 pm)29.00 "Hg (Nov 28, 3:53 pm)
Average32 °F85%29.91 "Hg
* Reported Nov 24 11:53 am — Dec 9 11:53 am, St. Paul, Weather by CustomWeather, © 2016

Note: Actual official high and low records may vary slightly from our data, if they occured in-between our weather recording intervals... More about our weather records

Advertising

St. Paul Weather History for the Previous 24 Hours

Scroll right to see more
 ConditionsComfort  
Time TempWeatherWind HumidityBarometerVisibility
11:53 am
Fri, Dec 9
18 °FOvercast.9 mph71%30.60 "Hg10 mi
10:53 am17 °FOvercast.5 mph76%30.60 "Hg9 mi
9:53 am16 °FOvercast.7 mph84%30.61 "Hg7 mi
8:53 am16 °FOvercast.10 mphN/A30.61 "Hg7 mi
7:53 am16 °FOvercast.7 mphN/A30.60 "Hg10 mi
6:53 am16 °FMostly cloudy.9 mph80%30.59 "Hg10 mi
5:53 am16 °FOvercast.6 mph80%30.59 "Hg10 mi
4:53 am16 °FMostly cloudy.8 mph80%30.59 "Hg10 mi
3:53 am16 °FOvercast.12 mph80%30.59 "Hg10 mi
2:53 am17 °FOvercast.9 mph80%30.59 "Hg10 mi
1:53 am17 °FOvercast.10 mph80%30.58 "Hg10 mi
12:53 am18 °FOvercast.10 mph77%30.57 "Hg10 mi
11:53 pm
Thu, Dec 8
18 °FOvercast.16 mph77%30.56 "Hg10 mi
10:53 pm19 °FPassing clouds.15 mph74%30.55 "Hg10 mi
9:53 pm20 °FOvercast.13 mph71%30.54 "Hg10 mi
8:53 pm19 °FPassing clouds.9 mph74%30.53 "Hg10 mi
7:53 pm21 °FOvercast.14 mph68%30.52 "Hg10 mi
6:53 pm21 °FOvercast.12 mph71%30.52 "Hg10 mi
5:53 pm22 °FOvercast.14 mph68%30.51 "Hg10 mi
4:53 pm22 °FOvercast.14 mph68%30.50 "Hg10 mi
3:53 pm23 °FOvercast.14 mph68%30.48 "Hg10 mi
2:53 pm23 °FOvercast.16 mph68%30.46 "Hg9 mi
1:53 pm24 °FOvercast.14 mph68%30.44 "Hg9 mi
Weather by CustomWeather, © 2016

See weather overviewHow to use our weather pages